Terug naar catalogus

GALAXY 17

ActiefCommunicatieGEO
NORAD 31307·PAYLOAD·🇺🇸 United States

Gelanceerd May 4, 2007 vanaf Guiana Space Centre

Loading…

TLE

VersSource: CelesTrak SupGP

Epoch: Sep 14, 2026, 00:00 UTC

1 31307C 07016B   26257.00000000 -.00000116  00000+0  00000+0 0  2574
2 31307   3.1899  78.7007 0002505 133.2632  56.0149  1.00275651    10

Volg GALAXY 17 in realtime met AllMySat

Download on the App Store